Precipitable_Water
0.79 0.61 0.52 0.56 0.56 0.51 0.45 0.38 0.33 0.38 0.42 0.37 0.33 0.32 0.34 0.37 0.37 0.37 0.37 0.38 0.38 0.40 0.46 0.53 0.56 0.58 0.55 0.50 0.50 0.64 0.72 0.99 1.08 1.11 1.09 1.15 1.13 1.27 1.28 1.33 1.31 1.25 1.22 1.19
0.56 0.47 0.63 0.63 0.57 0.48 0.44 0.37 0.34 0.39 0.43 0.37 0.32 0.27 0.31 0.31 0.28 0.28 0.27 0.28 0.30 0.32 0.36 0.44 0.50 0.55 0.57 0.60 0.59 0.55 0.65 0.80 1.02 1.09 1.10 1.10 1.16 1.29 1.27 1.28 1.24 1.23 1.21 1.19
0.44 0.47 0.55 0.53 0.48 0.41 0.40 0.36 0.35 0.33 0.36 0.35 0.28 0.18 0.18 0.22 0.25 0.27 0.28 0.28 0.29 0.28 0.30 0.33 0.36 0.41 0.48 0.52 0.58 0.63 0.63 0.70 0.89 1.07 1.11 1.09 1.10 1.15 1.19 1.16 1.17 1.16 1.19 1.16
0.46 0.53 0.49 0.47 0.43 0.44 0.33 0.42 0.36 0.31 0.26 0.17 0.28 0.11 0.14 0.17 0.18 0.21 0.22 0.25 0.26 0.27 0.29 0.31 0.33 0.35 0.38 0.41 0.49 0.57 0.64 0.68 0.78 0.92 1.01 0.96 0.91 0.91 1.03 1.10 1.13 1.15 1.19 1.15
0.41 0.45 0.45 0.41 0.43 0.47 0.37 0.41 0.34 0.31 0.25 0.22 0.19 0.15 0.12 0.16 0.14 0.15 0.20 0.23 0.27 0.29 0.29 0.29 0.30 0.32 0.35 0.38 0.42 0.47 0.57 0.61 0.74 0.88 0.92 0.96 0.95 0.99 1.02 1.03 1.06 1.08 1.09 1.07
0.46 0.53 0.51 0.47 0.49 0.46 0.44 0.37 0.32 0.28 0.24 0.13 0.15 0.15 0.09 0.13 0.15 0.19 0.23 0.25 0.28 0.29 0.31 0.32 0.37 0.39 0.40 0.43 0.43 0.44 0.46 0.56 0.67 0.81 0.92 0.94 0.92 0.92 0.94 0.98 1.00 1.00 0.99 1.00
0.41 0.43 0.47 0.48 0.40 0.43 0.38 0.28 0.16 0.14 0.14 0.10 0.20 0.17 0.12 0.18 0.22 0.24 0.23 0.25 0.28 0.31 0.33 0.35 0.36 0.38 0.41 0.42 0.45 0.47 0.45 0.47 0.67 0.77 0.86 0.95 0.94 0.98 0.95 0.99 0.99 0.94 0.91 0.91
0.28 0.26 0.39 0.45 0.37 0.30 0.30 0.26 0.16 0.10 0.11 0.14 0.23 0.13 0.15 0.24 0.26 0.27 0.30 0.31 0.33 0.34 0.37 0.39 0.40 0.43 0.44 0.44 0.46 0.49 0.48 0.49 0.61 0.78 0.84 0.95 1.00 1.05 1.02 1.03 1.02 0.98 0.93 0.93
0.24 0.24 0.40 0.41 0.39 0.36 0.29 0.24 0.33 0.24 0.23 0.17 0.16 0.17 0.19 0.21 0.26 0.31 0.34 0.35 0.35 0.35 0.38 0.41 0.44 0.44 0.44 0.44 0.44 0.52 0.53 0.58 0.65 0.76 0.96 0.95 1.03 1.06 0.97 1.01 1.04 0.96 0.93 0.94
0.33 0.23 0.35 0.38 0.41 0.39 0.34 0.36 0.23 0.25 0.12 0.10 0.13 0.14 0.15 0.24 0.30 0.34 0.35 0.37 0.38 0.39 0.40 0.46 0.46 0.46 0.50 0.49 0.48 0.54 0.59 0.66 0.71 0.82 0.96 1.02 1.05 1.04 1.00 1.03 0.95 0.92 0.95 0.96
0.36 0.29 0.29 0.37 0.32 0.29 0.32 0.29 0.29 0.27 0.23 0.15 0.14 0.17 0.31 0.32 0.35 0.35 0.38 0.41 0.43 0.47 0.49 0.54 0.53 0.53 0.53 0.49 0.45 0.55 0.62 0.74 0.77 0.84 0.94 0.95 1.01 0.98 0.97 0.98 0.94 0.95 0.95 0.97
0.37 0.32 0.25 0.28 0.37 0.40 0.36 0.31 0.31 0.22 0.21 0.27 0.25 0.21 0.37 0.38 0.40 0.42 0.43 0.47 0.52 0.55 0.53 0.56 0.57 0.57 0.54 0.52 0.50 0.55 0.70 0.79 0.84 0.87 0.92 0.94 0.88 0.90 0.94 0.93 0.94 0.95 0.99 0.99
0.39 0.31 0.23 0.25 0.32 0.37 0.32 0.36 0.37 0.37 0.36 0.29 0.25 0.25 0.40 0.42 0.44 0.51 0.54 0.60 0.63 0.63 0.57 0.58 0.57 0.57 0.57 0.55 0.53 0.61 0.77 0.81 0.86 0.88 0.94 0.92 0.85 0.93 0.91 0.90 0.92 0.97 0.99 1.02
0.44 0.35 0.29 0.21 0.27 0.33 0.30 0.36 0.40 0.39 0.31 0.31 0.30 0.31 0.39 0.45 0.50 0.58 0.61 0.60 0.60 0.64 0.61 0.58 0.57 0.59 0.62 0.62 0.57 0.59 0.72 0.86 0.85 0.88 0.93 0.90 0.94 0.89 0.89 0.91 0.92 0.93 0.93 0.94
0.43 0.31 0.33 0.33 0.34 0.36 0.37 0.39 0.41 0.39 0.40 0.33 0.34 0.39 0.44 0.53 0.60 0.60 0.60 0.54 0.54 0.57 0.60 0.57 0.57 0.60 0.63 0.60 0.57 0.60 0.73 0.83 0.89 0.90 0.97 0.88 0.83 0.86 0.88 0.88 0.91 0.90 0.92 0.87
0.45 0.31 0.35 0.33 0.40 0.43 0.40 0.44 0.46 0.46 0.45 0.44 0.45 0.43 0.58 0.64 0.68 0.59 0.58 0.56 0.54 0.53 0.55 0.57 0.59 0.62 0.61 0.59 0.58 0.63 0.77 0.82 0.94 0.92 0.89 0.80 0.82 0.83 0.84 0.91 0.88 0.88 0.87 0.77
0.40 0.37 0.36 0.32 0.41 0.42 0.38 0.45 0.49 0.50 0.53 0.51 0.41 0.50 0.62 0.61 0.63 0.58 0.59 0.60 0.58 0.56 0.56 0.55 0.56 0.59 0.60 0.61 0.65 0.75 0.86 0.82 0.88 0.88 0.83 0.80 0.81 0.84 0.85 0.86 0.87 0.80 0.78 0.73
0.41 0.42 0.43 0.36 0.40 0.29 0.47 0.56 0.56 0.51 0.54 0.57 0.56 0.58 0.62 0.66 0.68 0.67 0.65 0.63 0.63 0.65 0.63 0.65 0.61 0.60 0.63 0.68 0.79 0.84 0.85 0.84 0.85 0.83 0.82 0.83 0.86 0.85 0.90 0.85 0.88 0.87 0.88 0.85
0.50 0.47 0.40 0.35 0.35 0.40 0.46 0.52 0.50 0.47 0.47 0.56 0.53 0.61 0.65 0.71 0.71 0.69 0.69 0.66 0.64 0.68 0.69 0.69 0.71 0.73 0.75 0.74 0.76 0.79 0.82 0.82 0.82 0.80 0.81 0.83 0.84 0.85 0.83 0.87 0.87 0.88 0.79 0.68
0.53 0.55 0.45 0.39 0.33 0.29 0.44 0.51 0.58 0.59 0.38 0.56 0.57 0.58 0.61 0.66 0.55 0.62 0.74 0.74 0.67 0.67 0.71 0.70 0.72 0.73 0.72 0.72 0.75 0.78 0.77 0.76 0.80 0.86 0.90 0.90 0.89 0.88 0.86 0.83 0.74 0.69 0.67 0.67
0.43 0.44 0.38 0.37 0.35 0.38 0.48 0.53 0.60 0.35 0.37 0.57 0.59 0.62 0.62 0.58 0.65 0.73 0.74 0.78 0.80 0.78 0.75 0.74 0.73 0.73 0.74 0.77 0.80 0.78 0.83 0.82 0.84 0.86 0.88 0.86 0.86 0.83 0.77 0.67 0.60 0.65 0.64 0.61
0.40 0.39 0.37 0.37 0.33 0.29 0.53 0.54 0.45 0.51 0.58 0.59 0.61 0.65 0.65 0.68 0.68 0.70 0.72 0.73 0.79 0.79 0.81 0.83 0.80 0.81 0.83 0.85 0.84 0.82 0.81 0.85 0.85 0.84 0.83 0.78 0.72 0.63 0.61 0.65 0.65 0.59 0.48 0.36
0.39 0.45 0.43 0.40 0.38 0.50 0.56 0.57 0.63 0.62 0.58 0.60 0.61 0.67 0.71 0.71 0.68 0.67 0.66 0.68 0.70 0.75 0.78 0.80 0.80 0.81 0.82 0.82 0.82 0.79 0.78 0.76 0.73 0.66 0.61 0.61 0.62 0.65 0.64 0.51 0.40 0.34 0.30 0.28
0.50 0.57 0.49 0.47 0.47 0.53 0.58 0.63 0.64 0.63 0.59 0.62 0.68 0.69 0.71 0.70 0.70 0.65 0.65 0.64 0.67 0.69 0.69 0.72 0.72 0.71 0.70 0.71 0.71 0.68 0.64 0.62 0.60 0.60 0.62 0.61 0.54 0.45 0.38 0.34 0.30 0.28 0.27 0.27
0.48 0.55 0.52 0.49 0.54 0.57 0.60 0.62 0.62 0.63 0.64 0.62 0.69 0.71 0.70 0.69 0.67 0.66 0.64 0.64 0.65 0.65 0.66 0.66 0.64 0.62 0.61 0.62 0.62 0.63 0.63 0.62 0.60 0.56 0.48 0.42 0.38 0.34 0.29 0.28 0.29 0.29 0.29 0.25
0.51 0.46 0.45 0.45 0.57 0.57 0.57 0.63 0.65 0.62 0.62 0.62 0.65 0.68 0.71 0.68 0.66 0.66 0.66 0.66 0.66 0.66 0.66 0.65 0.63 0.62 0.63 0.61 0.62 0.62 0.59 0.54 0.48 0.40 0.37 0.34 0.29 0.28 0.29 0.29 0.29 0.30 0.26 0.24
Wind_Speed
18 19 22 21 21 20 19 19 19 19 19 21 24 26 26 27 29 31 31 30 31 30 29 28 27 28 31 33 34 35 33 34 32 31 30 29 29 28 26 25 25 24 23 23
18 19 18 18 19 19 19 20 19 19 19 20 23 29 29 31 34 33 34 32 31 30 31 32 32 32 31 31 32 34 35 35 36 35 34 33 31 30 29 27 26 25 24 24
19 17 22 19 18 16 16 18 18 19 19 20 21 25 24 23 25 27 28 30 30 31 31 31 32 33 33 33 34 35 36 37 37 37 36 34 32 31 30 29 28 27 26 25
16 18 15 20 18 16 15 14 14 14 14 18 14 21 22 23 25 25 25 27 28 29 30 31 32 34 35 35 35 36 37 39 39 39 38 38 36 35 35 33 31 29 28 26
16 16 16 14 14 16 15 12 11 13 14 16 17 18 21 19 22 24 25 26 27 27 28 28 28 30 32 33 38 37 38 39 41 41 41 39 38 36 35 35 33 31 29 28
11 12 13 15 13 12 12 11 11 12 12 15 18 17 20 17 18 17 19 22 26 27 26 27 28 28 29 30 32 38 39 40 41 42 41 40 38 37 36 37 35 33 30 30
13 11 11 11 11 12 11 8 9 11 12 16 12 16 21 20 23 21 25 25 25 27 29 30 30 31 33 34 35 37 39 42 42 43 43 42 39 38 37 38 37 34 32 31
11 9 14 13 13 12 12 11 10 12 12 14 14 19 20 21 25 26 25 27 27 28 30 31 31 32 32 34 35 37 40 41 44 44 44 42 40 38 36 37 37 36 33 31
10 9 9 10 11 10 10 11 10 12 15 15 18 21 24 23 19 19 21 24 30 32 31 32 32 32 33 35 37 38 39 40 42 44 43 42 40 38 36 36 36 35 34 31
8 7 8 8 8 12 9 9 8 11 13 16 17 19 18 19 20 21 22 22 24 26 28 29 29 29 31 33 35 38 39 40 40 42 43 41 40 37 36 35 35 34 33 32
9 8 5 8 10 11 10 11 11 11 12 13 15 15 16 15 19 21 24 25 26 29 29 31 32 31 31 31 31 34 36 38 38 39 41 40 38 36 35 34 33 33 32 31
10 7 8 12 10 10 12 12 11 9 12 13 14 19 21 24 23 27 31 36 41 40 31 29 29 28 28 28 29 28 31 33 36 35 37 37 37 36 35 33 32 31 30 29
11 7 5 6 6 9 10 12 12 14 13 17 15 17 16 23 33 36 39 37 37 33 28 29 26 25 25 23 23 23 24 28 31 32 33 34 34 34 33 32 31 30 29 27
9 8 8 7 6 4 8 10 12 13 12 15 21 29 30 31 34 35 34 33 31 27 26 23 23 25 24 23 20 19 20 23 27 29 30 31 31 31 30 29 29 28 27 27
7 7 7 10 12 10 10 12 12 13 17 15 25 25 28 30 32 30 25 24 19 15 14 17 17 18 19 18 17 16 17 20 24 26 28 28 28 28 28 27 26 25 24 24
7 7 6 8 8 7 8 9 10 12 14 17 21 23 22 24 28 24 19 17 15 11 12 12 13 14 12 13 15 15 15 18 22 24 24 25 25 26 25 24 23 24 23 21
7 5 5 5 5 6 3 4 4 5 6 10 13 17 20 23 23 20 19 17 14 12 11 11 11 8 7 7 11 14 17 18 20 21 22 22 23 23 23 22 21 21 22 23
6 5 4 5 4 3 2 2 3 4 7 8 12 14 17 19 20 17 17 17 15 10 7 5 1 4 5 7 10 12 13 18 18 18 19 20 21 20 21 19 20 19 18 17
7 5 4 3 3 5 2 2 3 4 7 7 11 13 15 18 14 15 17 16 15 12 9 8 7 7 8 9 12 14 14 15 16 17 18 18 18 19 18 18 17 15 13 13
8 7 6 3 3 4 3 4 6 5 6 8 10 12 14 14 14 14 17 15 13 12 10 9 8 9 9 10 12 13 14 14 14 14 16 15 15 16 17 14 13 11 11 12
7 7 8 7 5 6 6 5 4 5 7 10 11 10 11 11 10 13 14 15 14 12 10 9 9 10 11 13 12 12 11 14 14 14 12 11 9 11 11 8 8 9 11 13
8 7 7 6 6 6 4 4 5 8 10 11 10 7 8 9 10 9 10 12 13 13 14 15 13 11 12 13 14 14 15 13 14 12 10 7 7 6 7 6 7 9 11 14
9 10 7 8 7 7 7 8 9 10 10 11 10 6 5 6 8 8 8 7 10 10 12 14 14 15 14 14 13 12 11 12 11 9 7 5 4 3 3 5 8 11 13 16
11 10 11 9 8 7 9 7 8 10 10 10 8 5 4 4 5 5 5 6 6 7 8 10 11 12 12 11 11 11 10 10 8 7 4 2 1 3 5 8 11 12 15 17
13 11 10 12 12 8 7 8 10 10 9 8 7 5 4 3 3 2 2 3 4 4 5 6 7 8 9 9 8 8 7 6 5 3 1 1 3 5 7 10 12 15 17 19
12 15 14 13 12 10 11 11 11 10 9 8 6 5 4 3 2 1 1 0 1 3 5 6 6 6 6 7 7 6 4 4 2 0 2 3 6 8 10 12 15 17 19 21
Wind_Direction
203 209 215 221 224 234 234 241 245 246 248 251 251 254 254 254 254 255 255 253 254 253 253 250 249 248 247 245 244 244 245 243 241 240 242 246 246 245 247 247 248 251 254 255
211 216 218 218 223 234 239 241 248 251 253 260 264 265 262 257 256 254 254 254 254 254 254 253 252 250 248 247 245 244 244 245 243 242 243 246 247 246 245 246 248 251 252 253
210 216 222 227 230 233 239 243 247 250 261 263 270 265 258 258 252 254 253 252 252 252 253 252 252 251 250 249 248 246 244 245 244 243 243 244 244 245 244 245 247 250 250 251
217 217 221 223 228 227 237 244 243 253 257 255 263 264 260 259 259 259 256 254 252 254 254 254 253 252 252 252 251 249 247 244 244 242 242 242 244 244 246 245 247 247 248 248
215 215 213 217 221 223 231 234 243 253 260 267 259 258 260 261 262 263 260 257 254 256 254 254 255 255 254 256 251 251 248 246 243 242 242 242 243 244 244 244 244 244 246 246
205 212 211 213 219 219 221 237 253 256 257 262 254 249 265 263 263 261 270 262 261 260 256 255 257 258 258 260 259 253 250 247 244 241 241 241 240 240 243 242 241 243 245 244
205 213 210 209 208 217 219 232 255 261 257 256 264 256 266 270 282 270 275 270 266 261 259 259 261 262 262 263 262 259 253 248 243 241 240 240 240 240 241 239 239 239 242 243
189 207 204 210 212 218 219 227 238 251 259 271 273 265 275 272 279 281 278 273 267 266 265 262 263 264 264 264 265 261 254 249 242 239 238 238 238 238 240 239 238 240 239 241
182 206 193 202 211 207 226 235 247 268 273 281 271 281 285 286 293 292 290 283 275 272 266 263 266 267 268 267 266 261 255 247 243 237 235 234 235 236 239 237 236 237 237 236
190 181 197 200 209 219 227 238 262 271 277 279 283 284 279 294 298 295 295 294 292 286 273 265 265 269 273 272 268 263 254 244 240 235 232 231 232 235 234 234 234 233 233 232
201 202 208 205 224 225 236 250 262 269 271 278 295 285 297 292 299 300 296 291 290 293 280 271 267 268 272 275 272 263 252 241 235 232 229 228 230 232 230 230 231 229 229 231
202 200 219 229 240 242 246 252 256 270 280 282 287 294 294 292 297 301 297 292 292 287 272 270 268 268 271 272 272 266 248 236 228 227 226 225 227 227 226 226 226 225 226 231
192 216 233 259 261 248 253 252 258 268 283 277 288 297 311 309 305 304 303 298 293 286 270 264 263 267 268 270 268 262 246 231 223 222 221 220 220 219 220 221 221 221 225 229
197 223 229 238 252 258 263 264 262 259 277 288 276 294 302 306 310 310 306 304 297 280 269 265 266 260 262 265 265 255 241 227 218 216 214 211 211 214 214 215 217 219 225 225
214 245 255 264 265 263 267 269 267 265 277 282 298 299 305 315 318 319 314 320 308 294 281 270 272 262 262 257 252 246 234 222 211 204 203 204 207 207 207 212 212 220 223 221
227 254 265 279 263 254 273 272 273 274 283 286 295 298 318 326 326 331 320 325 328 311 292 280 273 267 253 248 237 230 218 207 197 191 196 197 197 199 203 206 213 215 217 225
217 230 261 253 290 293 264 278 285 297 299 306 319 320 331 333 338 343 341 333 322 311 300 288 277 250 238 226 212 203 190 188 183 184 188 191 193 197 202 206 211 216 227 227
212 220 244 262 298 216 222 283 300 303 309 318 323 331 340 340 350 358 358 355 349 337 321 312 219 182 176 171 169 173 174 169 177 180 184 187 191 197 201 210 210 222 226 227
215 213 233 229 248 253 254 310 330 325 330 339 338 338 344 356 7 14 7 11 18 30 48 70 93 119 137 147 152 154 159 166 172 175 177 182 191 197 203 204 216 214 225 240
210 216 218 236 248 236 250 318 331 348 334 343 343 343 352 357 11 13 17 19 30 41 54 70 87 106 121 135 145 151 154 159 172 184 177 187 186 200 197 197 198 232 242 264
204 215 224 229 239 261 259 295 322 332 319 332 340 349 357 6 7 14 25 32 41 41 58 76 93 105 116 125 131 138 156 151 147 146 150 160 173 185 196 196 220 252 267 278
209 206 218 215 225 253 252 313 304 305 318 323 327 333 357 9 15 17 27 39 51 55 65 75 88 106 110 116 120 117 119 131 142 146 149 147 163 178 198 230 261 274 283 289
226 222 225 215 224 253 286 287 307 315 313 320 318 320 336 3 10 20 32 45 54 63 70 78 84 91 104 108 114 117 120 133 135 135 136 141 153 195 250 272 282 290 295 298
244 237 239 248 249 252 277 285 311 317 312 316 311 310 319 335 355 19 41 54 63 74 79 85 88 92 96 103 107 111 117 121 127 129 131 146 212 284 292 296 298 301 302 302
240 249 243 250 259 261 262 286 304 309 308 315 314 301 314 336 352 10 37 48 65 86 102 103 101 99 102 105 108 114 118 121 121 120 129 290 299 304 307 307 306 306 307 307
240 237 235 241 254 253 271 287 299 302 298 294 292 289 296 296 325 346 350 54 129 120 126 123 118 113 111 109 111 113 117 125 128 107 312 309 310 310 310 310 310 311 311 312